Regional Weather Roundup
Issued by NWS

Home | Current Version | Previous Version | Text Only | Print | Product List | Glossary Off
Versions: 1 2 3 4 5 6 7 8 9 10 11 12 13 14 15 16 17 18 19 20 21 22 23 24 25 26 27 28 29 30 31 32 33 34 35 36 37 38 39 40

000
ASUS45 KBOU 220310
RWRCO

WEATHER ROUNDUP FOR COLORADO
NATIONAL WEATHER SERVICE PUEBLO CO
800 PM MST WED FEB 21 2018

NOTE: "FAIR" INDICATES FEW OR NO CLOUDS BELOW 12000 FEET WITH NO
SIGNIFICANT WEATHER AND/OR OBSTRUCTIONS TO VISIBILITY.

COZ001>005-013-030-031-220400-
...NORTHWEST COLORADO...

CITY           SKY/WX    TMP DP  RH WIND       PRES   REMARKS
CRAIG          CLOUDY    19  10  68 CALM      30.05F
HAYDEN         FAIR      16   6  65 CALM      30.05F
MEEKER         CLOUDY    23  14  68 NE7       30.01F WCI  15
RABBIT EARS PA NOT AVBL
STEAMBOAT SPGS CLOUDY    17   4  56 CALM      30.02F
WALDEN         CLOUDY    14   3  62 SE5       30.00S WCI   6
$$

COZ006>008-011-220400-
...WEST CENTRAL VALLEYS...

CITY           SKY/WX    TMP DP  RH WIND       PRES   REMARKS
GRAND JUNCTION CLOUDY    33  17  51 W6        30.03S WCI  28
MONTROSE       CLOUDY    30  17  58 NW5       30.02S WCI  25
EAGLE          CLOUDY    28  12  51 CALM      30.03R
RIFLE          CLOUDY    28  13  53 MISG      30.03F
DELTA          NOT AVBL
NUCLA          LGT SNOW  30  28  93 N5        30.03S WCI  25
$$

COZ017>023-064>068-220400-
...SOUTHWEST COLORADO...

CITY           SKY/WX    TMP DP  RH WIND       PRES   REMARKS
DURANGO        CLOUDY    28  25  88 E6        29.98S WCI  22
CORTEZ         CLOUDY    33  26  75 SE9       29.98S WCI  25
PAGOSA SPRINGS LGT SNOW  27  25  93 CALM      30.00S VSB 1
TELLURIDE      CLOUDY    25  10  54 SE12      29.93F WCI  14
WOLF CREEK PAS CLOUDY    10  10 100 S7        29.97F WCI   0
$$

COZ009-010-012-014-032>034-037-058>063-220400-
...CENTRAL COLORADO...

CITY           SKY/WX    TMP DP  RH WIND       PRES   REMARKS
ASPEN          CLOUDY    17  10  74 SW5       29.97S WCI  10
BUENA VISTA    FAIR      25   8  46 SE7       29.97R WCI  18
COPPER MTN     CLOUDY    14   3  62 S18       29.89F WCI  -3
BERTHOUD PASS  CLOUDY     3  -8  60 S18       29.89S WCI -17
COTTONWOOD PAS CLOUDY    27   5  39 N3        29.94F
GUNNISON       CLOUDY    22  12  65 SE3       29.96F
KREMMLING      FAIR      23  12  63 CALM      30.02R
LEADVILLE      CLOUDY    17   5  59 S9        29.92S WCI   6
MONARCH PASS   FAIR      10   3  72 SW20      30.02S WCI  -8
SALIDA         FAIR      24  11  58 SE13G23   30.06S WCI  12
SUNLIGHT       CLOUDY    10   5  79 S7        29.95F WCI   0
WILKERSON PASS FAIR      12   5  73 SW7       29.95F WCI   2
$$

COZ069>075-220400-
...SAN LUIS VALLEY/SANGRE DE CRISTO MOUNTAINS...

CITY           SKY/WX    TMP DP  RH WIND       PRES   REMARKS
ALAMOSA        FAIR      27  17  66 S8        29.97S WCI  19
DEL NORTE      CLOUDY    28  14  55 W7        29.98S WCI  21
LA VETA PASS   FAIR      19  12  73 S18G25    30.07F WCI   4
SAGUACHE       NOT AVBL
$$

COZ035-036-038>040-220400-
...NORTHERN COLORADO FRONT RANGE...

CITY           SKY/WX    TMP DP  RH WIND       PRES   REMARKS
DENVER INTL AP FAIR      12   6  77 SW7       30.11F WCI   1
DMNS CITY PARK NOT AVBL
AURORA         PTCLDY    12   8  84 CALM      30.11F
FRONT RANGE AP PTCLDY    16  10  79 SW6       30.12  WCI   7
ERIE MUNI ARPT FAIR       8   6  91 S3        30.19F FOG
BOULDER MUN AP FAIR      18  12  79 SW3       30.12F
CENTENNIAL     FAIR      14   8  77 CALM      30.10S
BROOMFIELD     PTCLDY    12   9  85 W3        30.11F
LOVELAND       FAIR      14   9  80 N8        30.14F WCI   3
LONGMONT       MOCLDY    12   7  79 W3        30.16F
$$

COZ041-046-047-076>085-087-088-220400-
...PIKES PEAK/PALMER DIVIDE AND SOUTHERN FOOTHILLS...

CITY           SKY/WX    TMP DP  RH WIND       PRES   REMARKS
COLO. SPRINGS  FAIR      16   7  67 SE10      30.11R WCI   4
A. F. ACADEMY  FAIR      16   7  66 S8        30.07R WCI   6
SCHRIEVER AFB  NOT AVBL
CHEYENNE MTN   NOT AVBL
ELLICOTT         N/A    N/A N/A N/A SE9         N/A
FALCON         FAIR      12   6  76 S5        30.07F WCI   4
FORT CARSON    FAIR      17   8  67 SE7       30.11R WCI   7
LIMON          MOCLDY    13  11  92 S5        30.16R WCI   5
MONUMENT HILL  FAIR      10   5  79 SW8       30.06S WCI  -1
CANON CITY     PTCLDY    21  12  68 NE7       30.13R WCI  13
WALSENBURG     FAIR      18  10  73 CALM      30.09S
TRINIDAD       FAIR      20   8  60 NW10      30.09R WCI   9
$$

COZ042>045-048>051-090-091-220400-
...NORTHEAST COLORADO...

CITY           SKY/WX    TMP DP  RH WIND       PRES   REMARKS
GREELEY ARPT   FAIR       7   2  80 NW10      30.15F WCI  -8
AKRON          FAIR      20  11  68 SE13      30.18S WCI   7
BURLINGTON     CLOUDY    20  15  81 SE10      30.23S WCI   9
WRAY           CLOUDY    27  14  59 SE10      30.28R WCI  17
YUMA           NOT AVBL
STERLING       FAIR      23  10  58 SE6       30.21R WCI  16
HOLYOKE        CLOUDY    25  12  58 SE12      30.27S WCI  14
FORT MORGAN    FAIR      21  11  63 SE10      30.18R WCI  10
$$

COZ086-089-092>099-220400-
...SOUTHEAST COLORADO...

CITY           SKY/WX    TMP DP  RH WIND       PRES   REMARKS
PUEBLO         FAIR      22  14  71 E9        30.16S WCI  12
LA JUNTA       FAIR      22  15  75 E13       30.17F WCI  10
LAMAR          CLOUDY    23  12  62 SE10      30.22S WCI  12
SPRINGFIELD      N/A     16  13  88 S8        30.21R WCI   5
$$





USA.gov is the U.S. government's official web portal to all federal, state and local government web resources and services.